History for Ft Lauderdale, FL

Tuesday, March 21, 2017 — View Current Conditions

Jump to Data:

Date:
Airport Code:
Recently Viewed Airport Codes: KFLL
Daily Summary
  Actual Average Record
Temperature
Mean Temperature 69°F 73°F  
Max Temperature 77°F 80°F 90°F (2003)
Min Temperature 60°F 66°F 42°F (1971)
Degree Days
Heating Degree Days 0 0  
Month to date heating degree days 6 7  
Since 1 July heating degree days 35 109  
Cooling Degree Days 4 8  
Month to date cooling degree days 148 164  
Year to date cooling degree days 604 520  
Growing Degree Days 18 (Base 50)    
Moisture
Dew Point 53°F    
Average Humidity 64    
Maximum Humidity 84    
Minimum Humidity 43    
Precipitation
Precipitation 0.00 in 0.11 in 1.37 in (2009)
Month to date precipitation 0.69 2.21  
Year to date precipitation 3.97 8.80  
Snow
Snow 0.00 in in in ()
Month to date snowfall 0.0  
Since 1 July snowfall 0.0  
Snow Depth 0.00 in    
Sea Level Pressure
Sea Level Pressure 30.14 in    
Wind
Wind Speed 7 mph (East)    
Max Wind Speed 15 mph    
Max Gust Speed 20 mph    
Visibility 10 miles    
Events      
T = Trace of Precipitation, MM = Missing Value Source: NWS Daily Summary

Show full METARS

(help) - Comma Delimited File

Hourly Observations

Time(EDT) Temperature Dew Point Humidity Sea Level Pressure Visibility Wind Direction Wind Speed Gust Speed Precipitation Events Conditions
12:53 AM 68.0°F 52.0°F 56% 30.14 in 10.0 miles East 5.8 mph - N/A   Partly Cloudy
1:53 AM 66.9°F 52.0°F 59% 30.13 in 10.0 miles East 4.6 mph - N/A   Partly Cloudy
2:53 AM 66.0°F 52.0°F 60% 30.12 in 10.0 miles East 6.9 mph - N/A   Partly Cloudy
3:53 AM 66.9°F 51.1°F 57% 30.12 in 10.0 miles East 5.8 mph - N/A   Clear
4:53 AM 64.9°F 52.0°F 63% 30.12 in 10.0 miles Calm Calm - N/A   Partly Cloudy
5:53 AM 60.1°F 53.1°F 78% 30.13 in 10.0 miles NW 4.6 mph - N/A   Partly Cloudy
6:53 AM 60.1°F 54.0°F 80% 30.14 in 10.0 miles NW 3.5 mph - N/A   Partly Cloudy
7:53 AM 61.0°F 55.0°F 81% 30.15 in 10.0 miles NW 4.6 mph - N/A   Partly Cloudy
8:53 AM 63.0°F 57.0°F 81% 30.17 in 10.0 miles NW 3.5 mph - N/A   Scattered Clouds
9:53 AM 70.0°F 59.0°F 68% 30.19 in 10.0 miles NW 4.6 mph - N/A   Partly Cloudy
10:53 AM 73.0°F 53.1°F 49% 30.19 in 10.0 miles East 5.8 mph - N/A   Scattered Clouds
11:53 AM 75.0°F 53.1°F 46% 30.19 in 10.0 miles SSE 9.2 mph - N/A   Partly Cloudy
12:53 PM 75.0°F 53.1°F 46% 30.18 in 10.0 miles East 10.4 mph 17.3 mph N/A   Partly Cloudy
1:53 PM 75.0°F 52.0°F 44% 30.17 in 10.0 miles ESE 8.1 mph - N/A   Partly Cloudy
2:53 PM 75.9°F 54.0°F 46% 30.15 in 10.0 miles East 9.2 mph - N/A   Partly Cloudy
3:53 PM 75.9°F 55.0°F 48% 30.13 in 10.0 miles ESE 11.5 mph - N/A   Partly Cloudy
4:53 PM 75.0°F 54.0°F 48% 30.11 in 10.0 miles ESE 12.7 mph - N/A   Partly Cloudy
5:53 PM 73.9°F 53.1°F 48% 30.11 in 10.0 miles ESE 12.7 mph - N/A   Partly Cloudy
6:53 PM 73.0°F 51.1°F 46% 30.12 in 10.0 miles East 10.4 mph - N/A   Partly Cloudy
7:53 PM 72.0°F 50.0°F 46% 30.10 in 10.0 miles ESE 10.4 mph - N/A   Partly Cloudy
8:53 PM 71.1°F 50.0°F 47% 30.11 in 10.0 miles SE 11.5 mph - N/A   Clear
9:53 PM 70.0°F 51.1°F 51% 30.12 in 10.0 miles SE 8.1 mph - N/A   Clear
10:53 PM 70.0°F 52.0°F 53% 30.12 in 10.0 miles SE 5.8 mph - N/A   Clear
11:53 PM 69.1°F 52.0°F 54% 30.11 in 10.0 miles SW 3.5 mph - N/A   Clear